Regional Weather Roundup
Issued by NWS New Orleans/Baton Rouge, LA

Home | Current Version | Previous Version | Text Only | Print | Product List | Glossary Off
Versions: 1 2 3 4 5 6 7 8 9 10 11 12 13 14 15 16 17 18 19 20 21 22 23 24 25 26 27 28 29 30 31 32 33 34 35 36 37 38 39 40 41 42 43 44 45 46 47 48 49 50

818
ASUS44 KLIX 212110
RWRLIX
NEW ORLEANS REGIONAL WEATHER ROUNDUP
NATIONAL WEATHER SERVICE NEW ORLEANS LA
400 PM CDT TUE OCT 21 2014

NOTE: "FAIR" INDICATES FEW OR NO CLOUDS BELOW 12,000 FEET WITH NO
      SIGNIFICANT WEATHER AND/OR OBSTRUCTIONS TO VISIBILITY.
      SKY/WX - SKY CONDITION AND SIGNIFICANT WEATHER.
      TMP - AIR TEMPERATURE.     DP    - DEWPOINT TEMPERATURE.
      RH  - RELATIVE HUMIDITY.   PRES  - PRESSURE.
      HI  - HEAT INDEX.          WCI   - WIND CHILL INDEX.

*  THESE STATIONS ARE NOT NWS OR FAA STATIONS AND ARE NOT UNDER
   NWS QUALITY CONTROL.

LAZ038-040-048-061>063-065>067-069-212200-
SOUTHEAST LOUISIANA

CITY           SKY/WX    TMP DP  RH WIND       PRES   REMARKS
N.O. AUDUBON     N/A     78  57  47 MISG        N/A
N.O. INTL ARPT SUNNY     79  52  38 E5        29.98F
N.O. LAKEFRONT SUNNY     77  55  46 W6        29.98F
N.O. DOWNTOWN*   N/A     79  52  38 N6        29.98F
SLIDELL        SUNNY     82  53  36 NE5       29.97F
BATON ROUGE    SUNNY     81  54  39 VRB5      29.99F
BOOTHVILLE     SUNNY     76  58  53 NE7       29.99S
BELLE CHASSE   SUNNY     80  52  37 NE6       29.98F
BOGALUSA*        N/A     83  50  32 N8        30.00S
NEW ROADS*       N/A     80  57  45 N6        30.00S
GONZALES*        N/A     81  56  42 NE6       29.98S
HAMMOND*       SUNNY     84  48  28 CALM      30.00S
HOUMA*         SUNNY     81  54  39 NE9       29.98S
PORT FOURCHON* CLEAR     77  57  50 E10       30.01S

$$

MSZ070-080>082-212200-
SOUTHERN MISSISSIPPI

CITY           SKY/WX    TMP DP  RH WIND       PRES   REMARKS
MCCOMB         SUNNY     79  53  40 N7        30.00F
GULFPORT       SUNNY     82  53  36 VRB5      29.97S
BILOXI         SUNNY     81  53  37 N9        29.97S
PASCAGOULA     SUNNY     82  51  34 N8        29.97S
STENNIS ARPT*  SUNNY     81  48  32 MISG      29.98S

$$

COASTAL OBSERVATIONS
LAKE AND NEARSHORE STATIONS

STATION/POSITION TIME  TEMP    WIND        PRES    WAVE
                       AIR SEA DIR/SP/G            HT/PER
                 (UTC) (F)     (DEG/KT/KT) (MB)    (FT/S)
PASCAGOULA       2100   76     190/  6/  8 1014.4
WAVELAND YACHT   2100   73     170/  7/  8 1014.3
GRAND ISLE       2100   76 77   70/  9/ 11 1015.7
SOUTHWEST PASS   2100   84 84              1015.2
NEW CANAL        2100   74 72  350/  1/  2 1015.7
SHELL BEACH      2100   76 71   90/  3/  4 1015.1

OFFSHORE STATIONS

STATION/POSITION TIME  TEMP    WIND        PRES    WAVE
                       AIR SEA DIR/SP/G            HT/PER
                 (UTC) (F)     (DEG/KT/KT) (MB)    (FT/S)
64 S DAUPHIN ISL 1955   74 80   40/ 10/ 12 1015.2    2/ 4

$$




USA.gov is the U.S. government's official web portal to all federal, state and local government web resources and services.